Regional Weather Roundup
Issued by NWS Green Bay, WI

Home | Current Version | Previous Version | Graphics & Text | Print | Product List | Glossary On
Versions: 1 2 3 4 5 6 7 8 9 10 11 12 13 14 15 16 17 18 19 20 21 22 23 24 25 26 27 28 29 30 31 32 33 34 35 36 37 38 39 40 41 42 43 44 45 46 47 48 49 50
000
ASUS43 KGRB 011710
RWRGRB

NORTH-CENTRAL AND NORTHEAST WISCONSIN REGIONAL WEATHER ROUNDUP
NATIONAL WEATHER SERVICE GREEN BAY WI
1200 PM CDT WED OCT 01 2014

WIZ005-009-010>012-018-019-011800-
NORTH CENTRAL WISCONSIN

CITY           SKY/WX    TMP DP  RH WIND       PRES   REMARKS
IRONWOOD       NOT AVBL
MANITOWISH WTR CLOUDY    51  46  80 SE12      29.92F
ARBOR VITAE    CLOUDY    52  46  78 SE12G20   29.93F
EAGLE RIVER    CLOUDY    50  43  76 S10G18    29.95F
LAND O LAKES   CLOUDY    52  45  75 S14       29.95F
RHINELANDER    CLOUDY    51  45  79 SE13      29.95F
PHILLIPS       CLOUDY    50  46  86 SE8       29.90F
ANTIGO         CLOUDY    52  48  85 S13       29.97S
TOMAHAWK       PTSUNNY   56  47  73 S7        29.94F
MERRILL        CLOUDY    55  47  76 SE8G17    29.94F
$$

WIZ013-073-011800-
NORTHEAST WISCONSIN

CITY           SKY/WX    TMP DP  RH WIND       PRES   REMARKS
IRON MOUNTAIN  CLOUDY    52  50  93 S8        29.98F FOG
MARINETTE      NOT AVBL
OCONTO         CLOUDY    54  54 100 SE9       30.01S
$$

WIZ017-030-035>037-045-011800-
CENTRAL WISCONSIN

CITY           SKY/WX    TMP DP  RH WIND       PRES   REMARKS
MEDFORD        CLOUDY    51  47  86 SE10      29.91F
WAUSAU         PTSUNNY   56  47  71 SE15      29.94F
MOSINEE        CLOUDY    55  50  82 SE12      29.98R
MARSHFIELD     CLOUDY    56  48  74 SE16      29.91F
WISC RAPIDS    PTSUNNY   58  48  69 SE12G20   29.94F
STEVENS POINT  CLOUDY    56  47  71 SE12      29.96S
WAUPACA        MOSUNNY   63  50  63 SE10G17   29.96F
SHAWANO        CLOUDY    59  51  74 SE13      29.98F
CLINTONVILLE   CLOUDY    59  50  72 SE8       29.97F
$$

WIZ038-039-048-051-011800-
FOX VALLEY

CITY           SKY/WX    TMP DP  RH WIND       PRES   REMARKS
NWS GREEN BAY  CLOUDY    59  53  80 E13       29.99F
APPLETON       PTSUNNY   57  52  82 SE10      29.99F
OSHKOSH        MOSUNNY   63  51  65 SE10      29.96F
FOND DU LAC    SUNNY     63  50  62 S13       29.97F
$$

WIZ022-050-052-011800-
EAST CENTRAL WISCONSIN

CITY           SKY/WX    TMP DP  RH WIND       PRES   REMARKS
STURGEON BAY   NOT AVBL
MANITOWOC      NOT AVBL
SHEBOYGAN      NOT AVBL
$$

LMZ563-521-522-541>543-011800-
LAKESHORE

STATION/POSITION TIME  TEMP    WIND        PRES    VSBY  WAVE
                       AIR SEA DIR/SP/G                  HT/PER
                 (UTC) (F)     (DEG/KT/KT) (MB)    (MI)  (FT/S)
SHEBOYGAN LKSHOR 1700   56 54  130/ 17/ 18 1016.3F
KEWAUNEE LKSHORE 1700   54     140/ 12/ 15 1015.8F
NORTHPORT PIER   1700   56     150/  9/ 14 1017.3S
N MID LAKE BUOY  1700   55 58  170/ 12/ 12 1018.0S         1
SISTER BAY LKSHO 1700          180/ 17/ 21   N/A
CHAMBERS ISLAND  1700   56     140/  6/ 13 1016.9S
MENOMINEE LKSHOR 1700   55     140/ 13/ 14 1016.9S
$$



USA.gov is the U.S. government's official web portal to all federal, state and local government web resources and services.